Location: ????????
(55.8351°N, 38.7040°E)
Time: 18:38:14
(UTC+00:00)

S3M - Pass Details

Date: 14 April 2024
Orbit: 949 x 1003 km, 83.0° (Epoch: 17 May)

Event Time Altitude Azimuth Distance (km) Brightness Sun altitude
Rises 01:26:51 0° 348° (NNW) 3,639 7.2 -7.9°
Reaches altitude 10° 01:29:20 10° 349° (NNW) 2,693 6.6 -7.6°
Maximum altitude 01:35:31 88° 76° (ENE) 968 4.1 -6.8°
Drops below altitude 10° 01:41:43 10° 170° (S) 2,703 6.2 -6.0°
Sets 01:44:13 0° 170° (S) 3,654 6.8 -5.7°
